Location: Shepherdstown, WV
(39.4326°N, 77.8042°W)
Time: 06:28:43
(UTC-04:00)

Vanguard 1 - Pass Details

Date: 07 August 2021
Orbit: 652 x 3831 km, 34.3° (Epoch: 24 September)

Event Time Altitude Azimuth Distance (km) Brightness Sun altitude
Rises 15:36:36 0° 268° (W) 3,605 13.5 51.7°
Reaches altitude 10° 15:39:17 10° 253° (WSW) 2,941 13.4 51.3°
Maximum altitude 15:44:59 25° 201° (SSW) 2,644 13.1 50.3°
Drops below altitude 10° 15:53:39 10° 153° (SSE) 4,626 13.6 48.8°
Sets 15:59:20 0° 143° (SE) 6,245 14.1 47.8°
